Regional Weather Roundup
Issued by NWS

Home | Current Version | Previous Version | Graphics & Text | Print | Product List | Glossary On
Versions: 1 2 3 4 5 6 7 8 9 10 11 12 13 14 15 16 17 18 19 20 21 22 23 24 25 26 27
000
ASUS45 KBOU 201910
RWRCO

WEATHER ROUNDUP FOR COLORADO
NATIONAL WEATHER SERVICE DENVER/BOULDER CO
1200 PM MST MON NOV 20 2017

NOTE: "FAIR" INDICATES FEW OR NO CLOUDS BELOW 12000 FEET WITH NO
SIGNIFICANT WEATHER AND/OR OBSTRUCTIONS TO VISIBILITY.

COZ001>005-013-030-031-202000-
...NORTHWEST COLORADO...

CITY           SKY/WX    TMP DP  RH WIND       PRES   REMARKS
CRAIG          PTSUNNY   37  21  52 VRB5      30.10F
HAYDEN         FAIR      33  21  61 S3        30.12F
MEEKER         PTSUNNY   38  21  50 CALM      30.10F
RABBIT EARS PA FAIR      30   9  40 W14G24    30.14F WCI  20
STEAMBOAT SPGS FAIR      33  21  61 S3        30.12S
WALDEN         PTSUNNY   39   7  26 S14       30.08S
$$

COZ006>008-011-202000-
...WEST CENTRAL VALLEYS...

CITY           SKY/WX    TMP DP  RH WIND       PRES   REMARKS
GRAND JUNCTION FAIR      41  18  39 CALM      30.19F
MONTROSE       FAIR      39  19  44 CALM      30.19F
EAGLE          FAIR      32  17  54 CALM      30.17F
RIFLE          FAIR      34  18  52 CALM      30.18F
DELTA          FAIR      40  15  36 W7        30.18F
NUCLA          PTSUNNY   41   9  26 CALM      30.22F
$$

COZ017>023-064>068-202000-
...SOUTHWEST COLORADO...

CITY           SKY/WX    TMP DP  RH WIND       PRES   REMARKS
DURANGO        FAIR      44  13  28 CALM      30.16F
CORTEZ         CLOUDY    48   5  17 CALM      30.18F
PAGOSA SPRINGS FAIR      44   4  19 SW3       30.16F
TELLURIDE      CLOUDY    46  -5  12 W9        30.21S
WOLF CREEK PAS FAIR      32  -2  23 SW9       30.29F WCI  24
$$

COZ009-010-012-014-032>034-037-058>063-202000-
...CENTRAL COLORADO...

CITY           SKY/WX    TMP DP  RH WIND       PRES   REMARKS
ASPEN          FAIR      35  19  52 NW9       30.15R WCI  28
BUENA VISTA    FAIR      53   5  14 W26G33    30.01F
COPPER MTN     FAIR      34   5  29 MISG      30.21S
BERTHOUD PASS  FAIR      21  10  63 NW25G37   30.19R WCI   4
COTTONWOOD PAS FAIR      46  -2  13 W41G54    30.04F
GUNNISON       FAIR      27  14  58 CALM      30.22F
KREMMLING      FAIR      41  12  30 SE5       30.15F
LEADVILLE      FAIR      38   0  20 N9G24     30.15R
MONARCH PASS   FAIR      28   1  31 W36G45    30.29S WCI  12
SALIDA         FAIR      58   6  12 W16G30    30.06F
SUNLIGHT       FAIR      34   3  27 SW10G22   30.24F WCI  26
WILKERSON PASS FAIR      36   3  25 W20G38    30.08S
$$

COZ069>075-202000-
...SAN LUIS VALLEY/SANGRE DE CRISTO MOUNTAINS...

CITY           SKY/WX    TMP DP  RH WIND       PRES   REMARKS
ALAMOSA        FAIR      43  11  27 CALM      30.10F
DEL NORTE      FAIR      41   8  26 E6        30.12F
LA VETA PASS   FAIR      39   5  24 SW25        N/A
SAGUACHE       FAIR      41   5  22 S7        30.12F
$$

COZ035-036-038>040-202000-
...NORTHERN COLORADO FRONT RANGE...

CITY           SKY/WX    TMP DP  RH WIND       PRES   REMARKS
DENVER INTL AP PTSUNNY   66   3   8 SW14      29.79F
DMNS CITY PARK   N/A     65   4   9 W10G21    29.80S
AURORA         PTSUNNY   64   4   9 W21G36    29.81S
FRONT RANGE AP PTSUNNY   68   5   8 W16G22    29.81F
ERIE MUNI ARPT FAIR      67   2   7 SE7       29.82F
BOULDER MUN AP FAIR      64  10  12 NE13      29.77R
CENTENNIAL     PTSUNNY   61   6  11 CALM      29.84F
BROOMFIELD     PTSUNNY   63   3   9 W30G40    29.82S
FORT COLLINS   FAIR      66   9  10 SW16G23   29.73F
LONGMONT       FAIR      70   8   9 W20G25    29.76F
$$

COZ041-046-047-076>085-087-088-202000-
...PIKES PEAK/PALMER DIVIDE AND SOUTHERN FOOTHILLS...

CITY           SKY/WX    TMP DP  RH WIND       PRES   REMARKS
COLO. SPRINGS  PTSUNNY   64   3   9 NW9       29.86F
A. F. ACADEMY  FAIR      63   1   8 W23G32    29.85F
SCHRIEVER AFB  FAIR      60  -1   8 S8        29.88F
CHEYENNE MTN   FAIR      56   4  12 CALM      29.84F
ELLICOTT         N/A    N/A N/A N/A W10       29.86F
FALCON         FAIR      62   0   8 NW13G21   29.91F
FORT CARSON    FAIR      62  -3   7 E9        29.84F
LIMON          FAIR      61   8  12 SE8       29.83F
MONUMENT HILL  FAIR      55   3  12 NW9       29.91F
CANON CITY     FAIR      64   1   8 SW12      29.85F
WALSENBURG     FAIR      61   7  11 SW20G31   29.91F
TRINIDAD       FAIR      55  23  28 W5        29.90F
$$

COZ042>045-048>051-090-091-202000-
...NORTHEAST COLORADO...

CITY           SKY/WX    TMP DP  RH WIND       PRES   REMARKS
GREELEY ARPT   FAIR      58  24  27 CALM      29.78F
AKRON          FAIR      64   1   8 W10       29.78F
BURLINGTON     FAIR      68  -2   6 SW15      29.79F
WRAY           NOT AVBL
YUMA           FAIR      64  -6   6 W10       29.76F
STERLING       FAIR      61  19  20 SW12      29.75F
HOLYOKE        FAIR      72   3   7 W30G41    29.73F
FORT MORGAN    FAIR      62  10  12 CALM      29.79S
$$

COZ086-089-092>099-202000-
...SOUTHEAST COLORADO...

CITY           SKY/WX    TMP DP  RH WIND       PRES   REMARKS
PUEBLO         FAIR      61   5  10 W13       29.82F
LA JUNTA       FAIR      64  10  12 W13       29.82F
LAMAR          FAIR      57  17  21 NW9       29.79F
SPRINGFIELD      N/A     67   6   9 W16G23    29.83F
$$




USA.gov is the U.S. government's official web portal to all federal, state and local government web resources and services.